Meteo Giornale » Osservazioni meteo Italia » Venezia-Tessera

ore: 22:50 - Osservazioni Meteo Venezia-Tessera
Lat. 45° 30' N Lon. 12° 20' E Alt. 2 metri s.l.m.

sereno Europe/Rome

26 °C

Sereno

Temp. 24 Ore

21 °C

29 °C

Est/Sud-Est

11.1 Km/h

Dew point 23 °C

Umidità 83 %

Visibilità  10 Km

Il sole sorge alle ore 05:39

Il sole tramonta alle ore 20:54

Data e Ora Cielo e Fenomeni T °C DP °C Um. % Pres. hPa Vis. km Vento km/h
Oggi h: 22:50 sereno Sereno 26 23 83 1012 10 E/SE 11.1
Oggi h: 22:20 sereno Sereno 26 23 83 1012 10 SE 9.3
Oggi h: 21:50 sereno Sereno 27 23 78 1012 10 N 5.5
Oggi h: 21:20 sereno Sereno 27 22 74 1011 10 SE 7.4
Oggi h: 20:50 sereno Sereno 27 22 74 1011 10 N 5.5
Oggi h: 20:20 sereno Sereno 28 22 69 1011 10 N 5.5
Oggi h: 19:50 sereno Sereno 28 22 69 1011 10 SE 7.4
Oggi h: 19:20 sereno Sereno 28 22 69 1011 10 SE 7.4
Oggi h: 18:20 sereno Sereno 29 22 66 1011 10 SE 9.3
Oggi h: 17:50 sereno Sereno 29 21 62 1011 10 SE 11.1
Oggi h: 17:20 sereno Sereno 29 20 58 1012 10 SE 9.3
Oggi h: 16:50 sereno Sereno 29 20 58 1012 10 SE 9.3
Oggi h: 16:20 sereno Sereno 29 21 62 1012 10 SE 9.3
Oggi h: 15:50 sereno Sereno 29 20 58 1012 10 S/SE 9.3
Oggi h: 15:20 sereno Sereno 29 19 54 1012 10 SE 9.3
Oggi h: 14:20 sereno Sereno 29 20 58 1012 10 S/SE 11.1
Oggi h: 13:50 sereno Sereno 29 21 62 1013 10 SE 11.1
Oggi h: 13:20 sereno Sereno 29 21 62 1013 10 SE 7.4
Oggi h: 12:50 sereno Sereno 29 21 62 1013 10 E 7.4
Oggi h: 12:20 sereno Sereno 28 21 65 1013 10 E/NE 9.3
Oggi h: 11:50 sereno Sereno 28 21 65 1013 10 E/NE 7.4
Oggi h: 11:20 sereno Sereno 27 22 74 1013 10 NE 9.3
Oggi h: 10:50 sereno Sereno 27 22 74 1013 10 E/NE 9.3
Oggi h: 10:20 sereno Sereno 27 21 69 1013 10 NE 9.3
Oggi h: 09:50 sereno Sereno 26 20 69 1012 10 NE 11.1
Oggi h: 09:20 sereno Sereno 26 19 65 1012 10 N/NE 11.1
Oggi h: 08:50 sereno Sereno 25 18 65 1012 10 N/NE 13
Oggi h: 08:20 sereno Sereno 23 18 73 1012 10 N/NE 14.8
Oggi h: 07:50 sereno Sereno 23 18 73 1012 10 N/NE 14.8
Oggi h: 07:20 sereno Sereno 22 19 83 1012 8 N/NE 14.8
Oggi h: 06:20 foschia Foschia 21 20 94 1012 5 N/NE 13
Oggi h: 05:50 foschia Foschia 21 20 94 1012 4 N/NE 11.1
Oggi h: 05:20 foschia Foschia 21 20 94 1012 5 N 9.3
Oggi h: 04:50 foschia Foschia 21 20 94 1012 5 N 9.3
Oggi h: 04:20 sereno Sereno 22 21 94 1012 6 N/NE 9.3
Oggi h: 03:50 sereno Sereno 22 21 94 1012 8 N/NE 9.3
Oggi h: 03:20 sereno Sereno 23 21 88 1012 8 N/NE 9.3
Oggi h: 02:50 sereno Sereno 23 21 88 1013 9 N/NE 9.3
Oggi h: 02:20 sereno Sereno 23 21 88 1013 10 N/NE 11.1
Oggi h: 01:50 sereno Sereno 23 21 88 1012 10 N/NE 9.3
Oggi h: 01:20 sereno Sereno 26 22 78 1012 10 N 5.5
Oggi h: 00:50 sereno Sereno 26 22 78 1012 10 S 7.4
Oggi h: 00:20 sereno Sereno 26 22 78 1012 10 S/SO 7.4
Ieri h: 23:50 sereno Sereno 26 23 83 1012 10 S/SO 13